Location: Concorezzo
(45.5833°N, 9.3333°E)
Time: 04:03:56
(UTC+00:00)

Daily predictions for brighter satellites

Satellite Brightness Start Highest point End
(mag) Time Altitude Azimuth Time Altitude Azimuth Time Altitude Azimuth
Cosmos 2360 Rocket 4.5 01:45:06 18° NNE 01:45:06 18° NNE 01:46:32 10° NNE
ATLAS 3B R/B 4.2 01:45:13 27° NNE 01:46:01 28° NNE 01:51:45 10° E
CENTAUR R/B 4.2 01:53:12 28° N 01:56:33 39° NE 02:04:27 10° ESE
ATLAS 2AS CENTAUR R/B 3.8 02:11:47 41° SE 02:12:58 43° ESE 02:20:26 10° NE
USA 238 DEB 4.5 02:19:34 46° SE 02:19:34 46° SE 02:24:31 10° SE
USA 238 4.5 02:19:36 46° SE 02:19:36 46° SE 02:24:36 10° SE
Cosmos 2278 Rocket 3.5 02:21:50 36° NE 02:22:29 37° NE 02:27:42 10° ESE
IDEFIX/ARIANE 42P 4.1 02:24:05 10° NNE 02:28:45 31° E 02:29:24 30° ESE
Cosmos 2333 Rocket 3.1 02:32:36 46° NE 02:32:36 46° NE 02:36:40 10° NNE
NOSS 3-2 (A) 3.9 02:40:40 77° NW 02:41:23 89° SW 02:49:48 10° SE
COSMOS 2455 3.6 02:44:50 43° N 02:44:50 43° N 02:49:01 10° NNE
SL-16 R/B 4.3 02:49:27 15° NNW 02:49:27 15° NNW 02:50:58 10° N
USA 267 3.1 02:41:49 10° NE 02:48:25 90° S 02:48:26 89° SW
Cosmos 2219 Rocket 2.6 02:52:53 55° NNE 02:52:53 55° NNE 02:57:13 10° NNE
Aureole 1 Rocket 4.1 02:54:47 53° NNE 02:54:47 53° NNE 02:58:22 10° NNE
Cosmos 2237 Rocket 3.0 03:01:05 33° SSE 03:03:11 47° ESE 03:08:38 10° NE
NOSS 3-2 (C) 4.0 03:02:04 33° NW 03:06:00 89° NE 03:14:28 10° SE
Cosmos 1709 Rocket 4.1 03:09:12 61° NW 03:09:12 61° NW 03:14:51 10° N
Cosmos 2184 Rocket 4.5 03:09:22 10° S 03:15:26 59° E 03:21:36 10° NNE
Cosmos 1953 4.0 03:13:12 10° N 03:16:53 33° ENE 03:20:32 10° SE
Cosmos 2322 Rocket 4.3 03:18:30 13° NNW 03:18:30 13° NNW 03:20:00 10° N
NOSS 0 Rocket 3.9 03:16:32 45° S 03:18:34 78° ESE 03:24:47 10° NNE
Cosmos 1980 3.9 03:18:36 40° S 03:20:36 69° ESE 03:26:14 10° NNE
ADEOS 3.5 03:16:35 10° NNE 03:21:51 87° ESE 03:23:07 54° S
COSMOS 2428 2.9 03:22:32 52° NW 03:22:32 52° NW 03:27:38 10° NNE
USA 234 3.1 03:15:56 10° SE 03:22:30 87° SW 03:25:14 39° NW
USA 32 4.1 03:19:41 21° S 03:23:10 75° E 03:28:26 10° N
NOSS 3-4 (A) 3.6 03:21:01 40° SSW 03:23:15 69° ESE 03:29:34 10° NE
NOSS 3-4 (C) 3.6 03:21:03 39° SSW 03:23:21 69° ESE 03:29:40 10° NE
Cosmos 1025 Rocket 4.0 03:26:26 37° N 03:26:26 37° N 03:29:06 10° N
Cosmos 2360 Rocket 3.8 03:26:52 20° NNW 03:26:52 20° NNW 03:29:47 10° N
PSLV R/B 4.0 03:23:38 10° NNE 03:26:52 51° N 03:26:52 51° N
MSX 4.0 03:24:02 10° NNE 03:29:46 72° ESE 03:35:29 10° S
Meteor 1-31 Rocket 4.5 03:29:18 10° NNE 03:32:46 32° E 03:36:11 10° SSE
Cosmos 1707 3.4 03:32:19 28° SSE 03:34:10 55° E 03:38:01 10° NNE
Meteor 1-4 Rocket 4.0 03:32:39 14° SSE 03:35:13 36° E 03:38:27 10° NNE
ATLAS 3B R/B 2.6 03:32:32 20° NW 03:37:31 89° SW 03:44:24 10° SE
Cosmos 1140 Rocket 4.0 03:33:17 12° S 03:37:58 59° ESE 03:43:03 10° NNE
Cosmos 614 Rocket 3.9 03:35:56 34° SSW 03:38:18 86° ESE 03:43:33 10° NNE
ADEOS II 4.1 03:34:52 10° NNW 03:36:00 14° NNW 03:36:00 14° NNW
BREEZE-M R/B 4.1 03:43:31 41° WNW 03:45:19 63° N 03:55:22 10° ENE
PAYLOAD A 4.0 03:40:27 10° NNE 03:45:19 77° ESE 03:50:21 10° S
Cosmos 2074 Rocket 3.9 03:40:06 10° S 03:46:21 81° W 03:52:36 10° N
Cosmos 1943 Rocket 4.5 03:42:51 10° N 03:47:11 22° NE 03:51:31 10° E
Cosmos 389 Rocket 2.4 03:47:29 82° E 03:47:29 82° E 03:50:55 10° NNE
CENTAUR R/B 3.1 03:40:27 12° NW 03:47:59 75° WSW 03:56:39 10° SSE
RESURS DK-1 3.8 03:45:09 10° S 03:48:58 37° ESE 03:52:49 10° NE
Gblst 52 Del rocket 4.5 03:48:44 31° NW 03:51:19 60° NNE 03:57:05 10° E
COSMOS 2441 4.3 03:49:39 10° N 03:54:34 77° WNW 03:59:26 10° SSW
SL-16 R/B 3.1 03:51:42 10° S 03:57:07 49° ESE 04:02:34 10° NE
Meteor 1-16 Rocket 4.4 03:54:32 10° N 03:59:51 68° ENE 04:05:12 10° SSE
ATLAS 2AS CENTAUR R/B 3.2 03:59:16 27° WSW 04:03:53 58° NW 04:11:48 10° NE
Cosmos 1356 3.9 04:01:47 10° N 04:05:13 61° ENE 04:08:38 10° SSE
CZ-4B R/B 3.9 04:01:50 10° NNE 04:05:50 80° ESE 04:10:00 10° S
Cosmos 2278 Rocket 2.6 04:03:51 24° NW 04:06:34 38° WSW 04:11:45 10° S
IDEFIX/ARIANE 42P 3.1 04:03:35 10° N 04:08:23 37° WNW 04:10:12 28° WSW
Cosmos 2297 3.9 04:02:52 10° NNW 04:08:40 75° ENE 04:14:23 10° SSE
Cosmos 44 3.6 04:09:41 33° WSW 04:09:41 33° WSW 04:13:32 10° S
Cosmos 1023 Rocket 4.4 04:06:48 11° SSW 04:11:46 71° WNW 04:16:55 10° NNE
Cosmos 1892 Rocket 3.8 04:07:37 10° S 04:12:01 70° E 04:16:25 10° NNE
Cosmos 2333 Rocket 3.3 04:14:38 23° WNW 04:15:48 24° NW 04:20:23 10° N
ERBS 3.5 04:15:31 26° NW 04:15:50 26° NNW 04:18:46 10° NNE
Cosmos 44 Rocket 3.4 04:16:37 10° NNW 04:21:22 74° NE 04:26:03 10° SE
CZ-2C R/B 2.5 04:16:52 10° N 04:22:00 62° WNW 04:27:04 10° SSW
Cosmos 1606 Rocket 3.6 04:19:16 10° NNW 04:23:29 53° W 04:27:41 10° S
GP-B 3.1 04:20:40 10° S 04:25:07 87° E 04:29:35 10° N
COBE Rocket 4.1 04:22:05 10° SSE 04:27:08 82° ENE 04:32:18 10° N
H-2A R/B 3.3 04:24:18 10° N 04:27:59 31° WNW 04:30:25 18° WSW
Cosmos 676 Rocket 4.0 04:24:28 10° SSW 04:29:43 65° WNW 04:34:57 10° NNE
COSMOS 2455 4.5 04:27:59 14° WNW 04:30:16 17° NNW 04:34:06 10° N
USA 267 3.9 04:25:00 10° NE 04:31:03 42° NNW 04:35:46 16° W
Cosmos 2219 Rocket 3.7 04:34:37 16° WNW 04:36:23 18° NW 04:40:09 10° N
Cosmos 1437 Rocket 2.6 04:32:55 10° S 04:36:42 88° W 04:40:30 10° N
KORONAS-FOTON 4.4 04:33:52 10° S 04:37:34 60° E 04:41:20 10° NNE
Meteor 2-5 Rocket 4.1 04:32:09 10° S 04:37:55 73° E 04:43:50 10° NNE
Meteor PRIRODA 3.6 04:35:05 10° N 04:38:48 62° WNW 04:42:29 10° SSW
Cosmos 407 Rocket 4.3 04:36:04 15° WSW 04:39:29 30° WNW 04:44:01 10° N
USA 116 4.0 04:37:17 10° SSE 04:40:59 63° ENE 04:44:21 10° N
Meteor 2-10 4.0 04:37:18 10° NNW 04:42:27 65° W 04:47:46 10° S
Cosmos 962 Rocket 4.5 04:37:31 10° SSW 04:43:49 76° W 04:50:13 10° N
PSLV R/B 3.6 04:40:47 10° N 04:44:28 63° WNW 04:48:06 10° SSW
Cosmos 2237 Rocket 3.0 04:42:59 12° WSW 04:47:27 31° NW 04:52:31 10° N
Okean 1-7 Rocket 3.8 04:43:21 10° SSW 04:47:40 49° WNW 04:52:04 10° N
Cosmos 1626 Rocket 4.3 04:43:31 10° S 04:47:44 57° E 04:52:00 10° NNE
BREEZE-M DEB (TANK) 2.9 04:47:03 19° W 04:48:12 29° SSW 04:50:32 10° SSE
In-Cosmos 22 4.1 04:43:22 10° SSW 04:48:38 59° WNW 04:54:04 10° N
Cosmos 2154 Rocket 4.3 04:45:44 10° SW 04:51:36 44° WNW 04:57:31 10° N
CZ-4B R/B 3.6 04:49:20 10° N 04:52:54 31° WNW 04:56:17 10° SW
Cosmos 1953 3.6 04:50:07 10° NW 04:53:03 20° W 04:56:00 10° SW
COSMO-SKYMED 1 2.6 04:49:04 10° S 04:53:21 60° W 04:57:40 10° NNW
CZ-4B DEB 4.2 04:48:16 10° NNE 04:53:46 87° WNW 04:59:14 10° SSW
Meteor 2-17 Rocket 4.4 04:49:53 10° SSW 04:55:57 77° W 05:02:02 10° N
Cosmos 1908 3.1 04:53:03 10° NNW 04:56:52 65° W 05:00:38 10° S
Cosmos 2228 4.0 04:56:25 10° NNW 04:59:55 25° W 05:03:24 10° SW
Cosmos 2369 Rocket 2.8 04:56:14 10° NNW 05:01:47 58° ENE 05:07:17 10° SE
PAYLOAD B 4.2 04:58:45 10° NNE 05:04:20 81° WNW 05:09:52 10° SSW
USA 234 4.3 05:00:46 10° S 05:06:04 26° SW 05:11:24 10° WNW
Meteor 1-31 Rocket 4.0 05:04:08 10° NNW 05:07:00 20° WNW 05:09:50 10° WSW
BREEZE-M DEB (TANK) 2.4 05:03:58 10° WNW 05:07:23 37° N 05:09:29 10° ENE
Cosmos 1850 Rocket 3.9 05:02:54 10° SSW 05:08:04 76° WNW 05:13:16 10° NNE
Cosmos 1727 Rocket 4.4 05:02:45 10° N 05:09:00 72° E 05:15:15 10° SSE
Cosmos 1726 3.0 05:07:11 10° NNW 05:10:21 27° W 05:13:30 10° SSW
Meteor 1-4 Rocket 4.2 05:08:29 10° WSW 05:10:26 14° WNW 05:12:24 10° NNW
CZ-4B R/B 3.2 05:05:27 10° NNE 05:10:47 88° ESE 05:16:05 10° SSW
NOSS 3-4 (A) 4.3 05:09:16 10° W 05:14:41 32° NNW 05:20:28 10° NNE
NOSS 3-4 (C) 4.3 05:09:19 10° W 05:14:46 32° NNW 05:20:34 10° NNE
ASTEX 1 3.4 05:11:55 10° S 05:16:48 87° W 05:21:44 10° N
Cosmos 2341 Rocket 4.3 05:12:36 10° SSW 05:18:34 46° WNW 05:24:32 10° N
Helios 1A Rocket 3.1 05:16:41 10° N 05:20:45 53° WNW 05:24:48 10° SSW
